Find Local Weather

World > North America > United States > California

Los Angeles, California Regional Weather

Lat: 34.04N, Lon: 118.3W
Wx Zone: CAZ041
Feedback

Los Angeles, CA Regional Weather

Expires:201904190700;;148816
ASUS46 KLOX 190613
RWRCA 

SOUTHERN CALIFORNIA WEATHER ROUNDUP
NATIONAL WEATHER SERVICE OXNARD CALIFORNIA
1100 PM PDT THU APR 18 2019

NOTE: "FAIR" INDICATES FEW OR NO CLOUDS BELOW 12,000 FEET WITH NO 
SIGNIFICANT WEATHER AND/OR OBSTRUCTIONS TO VISIBILITY.

  -  STATIONS PRECEEDED BY AN ASTERISK (*) ARE NOT NWS OR FAA 
     STATIONS AND ARE NOT SUBJECT TO NWS AND FAA QUALITY CONTROL.


CAZ041-042-087-190700-
LA AND ORANGE COUNTY COASTAL AREAS

  
CITY           SKY/WX    TMP DP  RH WIND       PRES   REMARKS
L.A. DOWNTOWN  CLEAR     62  55  77 CALM      30.03R                  
L.A. AIRPORT   FOG       59  56  89 SW7       30.04R VSB 1/2          
LONG BEACH     PTCLDY    62  55  77 S5        30.03S                  

CITY           SKY/WX    TMP DP  RH WIND       PRES   REMARKS
FULLERTON      CLEAR     64  52  64 S3        30.02S                  
*GETTY CENTER    N/A     57  54  88 S6          N/A                   
HAWTHORNE      PTCLDY    61  55  81 SW5       30.04R                  
*LEO CARRILLO    N/A     59  55  88 NE3         N/A                   
*LOS ALAMITOS  FAIR      58  57  96 S5        30.03S                  
*REDONDO BEACH   N/A     58  54  86 CALM      30.03S                  
SANTA ANA      FOG       59  56  89 SW9       30.03S VSB 3/4          
STA MONICA APT PTCLDY    60  56  86 SW5       30.04R                  
*UCLA            N/A     59  54  82 S2        30.01R                  

$$


SKY/WX - Weather  TMP - Temperature  DP - Dew Point  RH - Relative Humidity
WIND - Wind Direction/Speed PRES - Barometric Pressure VSB - Visibility
WCI - Wind Chill Index E13G22 Wind - East Wind 13 mph/Gusts of 22 mph